Back to catalog

STARLINK-36906

AliveCommunicationsSSO
NORAD 68036·PAYLOAD·🇺🇸 United States

Launched Mar 1, 2026 from Vandenberg Space Force Base

Loading…

Next Passes (next 24 hours)

TLE

FreshSource: CelesTrak SupGP

Epoch: Sep 14, 2026, 15:58 UTC

1 68036C 26040X   26257.66576389  .00005059  00000+0  15704-3 0  2572
2 68036  97.2856 205.1202 0001854  88.9874 357.4771 15.33438300    11

Track STARLINK-36906 in real time with AllMySat

Download on the App Store